[[{"header":{"parameterUnit":"m.s-1","parameterCategory":1,"la1":30.2991,"la2":30.254,"lo1":-89.0895,"lo2":-89.0444,"dy":0.0017,"dx":0.0017,"nx":28,"ny":28,"refTime":"2023-08-23T09:00:00:Z","depth":0,"parameterNumber":2,"parameterNumberName":"U-component_of_WINDS"},"data":[0,0,0,0,0,0,0,0,0,0,0,0,0,0,0,0,0,0,0,0,0,0,0,0,0,0,0,0,0,0,0,0,0,0,0,0,0,0,0,0,0,0,0,0,0,0,0,0,0,0,0,0,0,0,0,0,0,0,-2.5741,-2.5741,0,-2.5767,-2.5767,-2.5767,-2.5736,-2.5735,-2.5734,-2.5733,-2.576,-2.5762,-2.5764,0,0,0,0,0,0,0,0,0,0,0,0,0,-2.5666,-2.5667,-2.5741,-2.5741,-2.5742,-2.5767,-2.5767,-2.5768,-2.5736,-2.5735,-2.5734,-2.5732,-2.5759,-2.5762,-2.5764,0,0,0,0,0,0,0,0,0,0,0,0,0,-2.5696,-2.5668,-2.5741,-2.5729,-2.5728,-2.5767,-2.5767,-2.5768,-2.5737,-2.5735,-2.5733,-2.5732,-2.5759,-2.5761,-2.5764,-2.5816,0,0,-2.5772,-2.5774,0,0,0,0,0,0,0,0,-2.5694,-2.5699,-2.5731,-2.573,-2.5729,-2.5747,-2.5751,-2.5784,-2.5737,-2.5734,-2.5733,-2.5731,-2.5757,-2.576,-2.5768,-2.5817,-2.5818,-2.5773,-2.5774,-2.5775,-2.5776,0,0,0,0,0,0,0,-2.5692,-2.5697,-2.5751,-2.5731,-2.573,-2.5723,-2.5725,-2.5757,-2.5755,-2.5734,-2.5731,-2.5735,-2.5756,-2.5766,-2.5769,-2.5818,-2.5773,-2.5775,-2.5777,-2.5778,-2.5912,-2.5914,0,0,0,0,0,0,-2.5691,-2.5696,-2.575,-2.5752,-2.5707,-2.5726,-2.5728,-2.5743,-2.5754,-2.5754,-2.5736,-2.5733,-2.5762,-2.5766,-2.577,-2.5832,-2.5775,-2.5778,-2.5779,-2.591,-2.5912,-2.5915,0,0,0,0,0,0,-2.569,-2.5696,-2.5749,-2.5723,-2.573,-2.5729,-2.5745,-2.5744,-2.5754,-2.5756,-2.5756,-2.5747,-2.5761,-2.5766,-2.5805,-2.5832,-2.5779,-2.5782,-2.5908,-2.5911,-2.5913,-2.5955,0,0,0,0,0,0,-2.5688,-2.5696,-2.5715,-2.5724,-2.5731,-2.5784,-2.5747,-2.5746,-2.5758,-2.5755,-2.5766,-2.5766,-2.576,-2.5801,-2.5807,-2.5835,-2.5784,-2.5905,-2.5909,-2.5913,-2.5952,-2.5959,-2.5966,0,0,0,0,0,-2.5685,-2.5726,-2.5716,-2.5723,-2.5755,-2.5785,-2.5789,-2.5781,-2.5761,-2.578,-2.5782,-2.5766,-2.5828,-2.5805,-2.5812,-2.5841,-2.5904,-2.5908,-2.5912,-2.5948,-2.5958,-2.5966,0,0,0,0,0,0,-2.572,-2.5727,-2.5716,-2.5761,-2.5773,-2.578,-2.5804,-2.5791,-2.5809,-2.5805,-2.5795,-2.5798,-2.5839,-2.5844,-2.5818,-2.5892,-2.5863,-2.5869,-2.5887,-2.5897,-2.5904,-2.5902,-2.5786,0,0,0,0,0,-2.5733,-2.5757,-2.5761,-2.58,-2.5807,-2.5805,-2.5817,-2.581,-2.5822,-2.5827,-2.5832,-2.5844,-2.5867,-2.5882,-2.5903,-2.5952,-2.5955,-2.5976,-2.5983,-2.5989,-2.5994,-2.6022,-2.6031,-2.5929,-2.5929,-2.5929,0,0,-2.576,-2.5766,-2.5782,-2.5808,-2.5816,-2.5841,-2.5809,-2.5837,-2.5856,-2.5831,-2.5868,-2.5873,-2.5886,-2.5931,-2.5951,-2.5936,-2.6023,-2.5994,-2.5999,-2.6001,-2.6027,-2.6037,-2.6046,-2.5932,-2.5931,-2.5931,0,0,-2.5822,-2.5829,-2.5862,-2.5872,-2.5885,-2.5883,-2.5892,-2.5901,-2.5903,-2.594,-2.5923,-2.5945,-2.5984,-2.5995,-2.6005,-2.6073,-2.6059,-2.608,-2.6118,-2.6145,-2.6153,-2.616,-2.6185,-2.6194,-2.6085,-2.6085,-2.6086,0,-2.5853,-2.589,-2.5881,-2.5911,-2.5923,-2.5903,-2.5937,-2.5947,-2.5966,-2.5975,-2.5959,-2.6008,-2.6015,-2.6063,-2.6079,-2.6088,-2.6098,-2.6078,-2.6152,-2.616,-2.6166,-2.619,-2.6199,-2.6088,-2.6088,-2.6087,-2.6087,0,-2.5929,-2.5955,-2.5981,-2.6,-2.6016,-2.6047,-2.6044,-2.606,-2.6053,-2.6053,-2.6092,-2.6101,-2.6123,-2.6134,-2.6127,-2.6181,-2.6172,-2.6154,-2.6124,-2.6179,-2.6201,-2.6209,-2.6092,-2.6091,-2.609,-2.6089,0,0,-2.6012,-2.6028,-2.6037,-2.6046,-2.606,-2.608,-2.6112,-2.6134,-2.6149,-2.6164,-2.619,-2.6224,-2.6209,-2.6221,-2.6214,-2.6238,-2.6292,-2.6218,-2.6218,-2.6232,-2.6354,-2.6367,-2.6378,-2.6283,-2.6285,-2.6286,-2.6353,0,-2.6075,-2.6129,-2.6122,-2.6174,-2.6199,-2.6181,-2.6209,-2.6221,-2.6222,-2.6244,-2.6246,-2.6271,-2.6248,-2.6255,-2.6278,-2.6281,-2.6317,-2.6276,-2.6308,-2.631,-2.6306,-2.6389,-2.6403,-2.6465,-2.6361,-2.6363,-2.6364,0,-2.6154,-2.6172,-2.6227,-2.6238,-2.6248,-2.6273,-2.6293,-2.6314,-2.6328,-2.6328,-2.6342,-2.6332,-2.6364,-2.6334,-2.638,-2.6352,-2.6365,-2.6369,-2.6371,-2.6374,-2.634,-2.6394,-2.6485,-2.6495,-2.6377,-2.6376,-2.6375,0,-2.621,-2.6248,-2.6286,-2.6294,-2.6308,-2.6326,-2.6333,-2.6345,-2.6359,-2.6377,-2.6387,-2.6409,-2.6421,-2.6438,-2.6435,-2.6413,-2.6482,-2.6451,-2.6483,-2.6483,-2.6498,-2.6497,-2.6592,-2.6506,-2.6506,-2.6506,-2.6506,0,-2.628,-2.6315,-2.6311,-2.6334,-2.6373,-2.6366,-2.6404,-2.6408,-2.642,-2.6444,-2.643,-2.6453,-2.6447,-2.6471,-2.6468,-2.6507,-2.6512,-2.6514,-2.6513,-2.6515,-2.6515,-2.6523,-2.6519,-2.6509,-2.6508,-2.6508,-2.6507,0,-2.6349,-2.6348,-2.6388,-2.6398,-2.6402,-2.643,-2.6439,-2.6461,-2.6462,-2.6494,-2.6501,-2.6503,-2.653,-2.6528,-2.6559,-2.6557,-2.6605,-2.6599,-2.66,-2.6599,-2.6632,-2.6629,-2.6736,-2.675,-2.6654,-2.6655,-2.6656,0,-2.6394,-2.642,-2.6433,-2.6449,-2.6457,-2.6481,-2.6496,-2.6491,-2.6507,-2.6525,-2.6546,-2.6572,-2.6592,-2.6636,-2.6641,-2.6665,-2.6659,-2.6695,-2.6662,-2.6664,-2.666,-2.6659,-2.6662,-2.6701,-2.6702,-2.6703,-2.6704,0,-2.6474,-2.6472,-2.6494,-2.6516,-2.6534,-2.6551,-2.6567,-2.658,-2.6576,-2.6595,-2.6623,-2.6639,-2.6671,-2.6697,-2.672,-2.6727,-2.6716,-2.6714,-2.6723,-2.6726,-2.6726,-2.6727,-2.6618,-2.6712,-2.6711,-2.671,-2.671,-2.671,-2.6532,-2.6555,-2.6568,-2.6593,-2.6604,-2.662,-2.6642,-2.6646,-2.6669,-2.6694,-2.669,-2.6721,-2.6735,-2.6765,-2.6775,-2.68,-2.6787,-2.68,-2.6803,-2.6806,-2.681,-2.6722,-2.6804,-2.6804,-2.6804,-2.6804,-2.6803,0,-2.6611,-2.6619,-2.6642,-2.6665,-2.6685,-2.6672,-2.6689,-2.6707,-2.6735,-2.6749,-2.677,-2.6802,-2.6828,-2.6835,-2.686,-2.6879,-2.6875,-2.6886,-2.6885,-2.6887,-2.682,-2.681,-2.6889,-2.6889,-2.6889,-2.6889,-2.6889,-2.6889,-2.6655,-2.6693,-2.6694,-2.6738,-2.6746,-2.6776,-2.6787,-2.6802,-2.6813,-2.685,-2.6871,-2.6876,-2.6888,-2.6914,-2.6938,-2.6939,-2.6949,-2.6963,-2.6963,-2.69,-2.6891,-2.6883,-2.6874,-2.6965,-2.6965,-2.7027,-2.7028,-2.7028]},{"header":{"parameterUnit":"m.s-1","parameterCategory":1,"la1":30.2991,"la2":30.254,"lo1":-89.0895,"lo2":-89.0444,"dy":0.0017,"dx":0.0017,"nx":28,"ny":28,"refTime":"2023-08-23T09:00:00:Z","depth":0,"parameterNumber":3,"parameterNumberName":"V-component_of_WINDS"},"data":[0,0,0,0,0,0,0,0,0,0,0,0,0,0,0,0,0,0,0,0,0,0,0,0,0,0,0,0,0,0,0,0,0,0,0,0,0,0,0,0,0,0,0,0,0,0,0,0,0,0,0,0,0,0,0,0,0,0,0.6964,0.6964,0,0.6935,0.6935,0.6934,0.695,0.695,0.6951,0.6952,0.692,0.6918,0.6917,0,0,0,0,0,0,0,0,0,0,0,0,0,0.7032,0.703,0.6964,0.6964,0.6963,0.6935,0.6935,0.6934,0.695,0.695,0.6951,0.6952,0.692,0.6918,0.6917,0,0,0,0,0,0,0,0,0,0,0,0,0,0.7002,0.703,0.6964,0.6968,0.6968,0.6935,0.6935,0.6934,0.6949,0.6951,0.6952,0.6953,0.6921,0.6919,0.6916,0.6878,0,0,0.6909,0.6908,0,0,0,0,0,0,0,0,0.7004,0.7,0.6967,0.6967,0.6967,0.6947,0.6947,0.6915,0.6949,0.6956,0.6952,0.6953,0.6928,0.6925,0.6917,0.6876,0.6875,0.6909,0.6907,0.6906,0.6906,0,0,0,0,0,0,0,0.7006,0.7001,0.6952,0.6967,0.6967,0.697,0.6967,0.6941,0.6936,0.6956,0.6957,0.6953,0.6928,0.6919,0.6916,0.6874,0.6909,0.6907,0.6905,0.6904,0.6801,0.68,0,0,0,0,0,0,0.7008,0.7003,0.6953,0.6952,0.6989,0.6968,0.6965,0.6952,0.6936,0.6935,0.6952,0.6954,0.6923,0.6919,0.6915,0.6869,0.6906,0.6904,0.6903,0.6802,0.6801,0.6799,0,0,0,0,0,0,0.7009,0.7003,0.6955,0.6977,0.6971,0.6966,0.6951,0.6951,0.6942,0.6933,0.6932,0.6944,0.6923,0.6918,0.6887,0.6868,0.6903,0.6901,0.6804,0.6802,0.68,0.6776,0,0,0,0,0,0,0.7011,0.7004,0.6989,0.6977,0.697,0.6927,0.695,0.695,0.6938,0.694,0.6925,0.6924,0.6924,0.6891,0.6885,0.6865,0.6899,0.6806,0.6803,0.6801,0.6778,0.6773,0.6769,0,0,0,0,0,0.7014,0.6983,0.6989,0.6982,0.6952,0.6926,0.6922,0.6923,0.6937,0.6922,0.6916,0.6925,0.6871,0.6887,0.6881,0.686,0.6807,0.6804,0.6801,0.678,0.6774,0.6769,0,0,0,0,0,0,0.6992,0.6981,0.6987,0.6952,0.694,0.6929,0.691,0.6917,0.69,0.6902,0.6904,0.69,0.6868,0.6861,0.6879,0.6822,0.6841,0.6837,0.6828,0.6822,0.6817,0.6819,0.6897,0,0,0,0,0,0.6984,0.6964,0.6956,0.6925,0.6919,0.6916,0.6904,0.6907,0.6894,0.6888,0.6881,0.6867,0.6848,0.6835,0.6816,0.6778,0.6775,0.6761,0.6756,0.6752,0.6748,0.6727,0.6721,0.679,0.679,0.679,0,0,0.6965,0.6957,0.6944,0.6921,0.6912,0.6891,0.6911,0.6888,0.6873,0.6885,0.6855,0.6849,0.6834,0.6799,0.6784,0.6793,0.6729,0.6749,0.6746,0.6743,0.6724,0.6717,0.6711,0.6788,0.6788,0.6788,0,0,0.692,0.6913,0.6887,0.6877,0.6864,0.6862,0.6856,0.6844,0.6841,0.6811,0.682,0.6801,0.6767,0.6757,0.6747,0.67,0.6707,0.6694,0.6669,0.6649,0.6643,0.6639,0.6621,0.6615,0.669,0.669,0.669,0,0.6899,0.6869,0.6872,0.6849,0.6838,0.6849,0.6823,0.6814,0.6794,0.6786,0.6797,0.6756,0.6746,0.6709,0.6698,0.669,0.6682,0.6695,0.6644,0.6639,0.6635,0.6618,0.6612,0.6688,0.6689,0.6689,0.6689,0,0.6842,0.6821,0.6802,0.6784,0.6771,0.6746,0.6746,0.6732,0.6736,0.6733,0.6703,0.6693,0.6672,0.6664,0.6667,0.6627,0.6633,0.6644,0.6663,0.6627,0.6611,0.6605,0.6686,0.6687,0.6687,0.6688,0,0,0.6782,0.6767,0.676,0.6752,0.6739,0.6722,0.6698,0.6679,0.6668,0.6655,0.6634,0.6606,0.6616,0.6605,0.6607,0.6589,0.6552,0.6602,0.6602,0.6592,0.6508,0.6499,0.6492,0.6557,0.6556,0.6555,0.6509,0,0.6736,0.6694,0.6697,0.6657,0.6638,0.6649,0.6628,0.6617,0.6614,0.6597,0.6594,0.6573,0.6589,0.6582,0.6565,0.656,0.6535,0.6564,0.6537,0.6536,0.6539,0.6484,0.6474,0.643,0.6503,0.6502,0.6501,0,0.6676,0.6662,0.662,0.6611,0.6603,0.6584,0.6567,0.655,0.6539,0.6538,0.6526,0.6531,0.6507,0.6527,0.6493,0.6512,0.6502,0.6498,0.6496,0.6493,0.6515,0.6478,0.6417,0.641,0.6492,0.6492,0.6493,0,0.6635,0.6606,0.6577,0.657,0.6558,0.6545,0.6539,0.6529,0.6517,0.6503,0.6495,0.6478,0.6468,0.6454,0.6454,0.6469,0.6419,0.644,0.6417,0.6417,0.6405,0.6405,0.634,0.64,0.64,0.64,0.64,0,0.6583,0.6557,0.6559,0.6541,0.6512,0.6516,0.6488,0.6483,0.6474,0.6456,0.6465,0.6447,0.6449,0.6431,0.6431,0.6403,0.6398,0.6396,0.6396,0.6395,0.6395,0.6387,0.639,0.6399,0.6399,0.6399,0.64,0,0.6531,0.6532,0.6501,0.6493,0.6491,0.647,0.6462,0.6445,0.6444,0.642,0.6415,0.6412,0.6392,0.6391,0.6368,0.6368,0.6333,0.6337,0.6337,0.6337,0.6314,0.6316,0.624,0.6231,0.6298,0.6297,0.6297,0,0.6497,0.6478,0.6468,0.6457,0.645,0.6432,0.6421,0.6424,0.6412,0.6398,0.6383,0.6363,0.6348,0.6315,0.631,0.6292,0.6295,0.627,0.6292,0.6291,0.6294,0.6294,0.6292,0.6265,0.6264,0.6264,0.6263,0,0.6437,0.6438,0.6422,0.6406,0.6393,0.638,0.6369,0.6359,0.6361,0.6347,0.6327,0.6315,0.6292,0.6272,0.6255,0.6249,0.6256,0.6257,0.625,0.6248,0.6248,0.6247,0.6324,0.6258,0.6258,0.6259,0.6259,0.6259,0.6392,0.6375,0.6366,0.6348,0.634,0.6329,0.6313,0.631,0.6294,0.6275,0.6278,0.6256,0.6245,0.6223,0.6215,0.6197,0.6206,0.6197,0.6194,0.6192,0.6189,0.6252,0.6194,0.6195,0.6195,0.6195,0.6195,0,0.6331,0.6326,0.631,0.6294,0.6279,0.629,0.6277,0.6265,0.6245,0.6235,0.622,0.6197,0.6178,0.6173,0.6155,0.6141,0.6144,0.6137,0.6137,0.6135,0.6183,0.619,0.6134,0.6134,0.6134,0.6134,0.6134,0.6135,0.6298,0.627,0.627,0.6239,0.6234,0.6212,0.6204,0.6195,0.6187,0.6161,0.6146,0.6143,0.6135,0.6116,0.61,0.6099,0.6091,0.6082,0.6082,0.6126,0.6132,0.6138,0.6144,0.608,0.608,0.6036,0.6035,0.6035]}]]